THORAD AGENA D DEB, 22533

Orbit data source: Space-Track

THORAD AGENA D DEB, 22533 is space debris in SSO originally from a launch on Wed, 08 Apr 1970 UTC launched from the Air Force Western Test Range (AFWTR). Debris objects in space refer to the collection of defunct objects orbiting the Earth. Examples of debris include non-operational satellites, rocket bodies, and fragments generated from explosions, collisions, or faulty payload assembly.

Loading next visibility...
Identifier
22533, 1970-025QP
Orbit
SSO
Country
Flag of USUS
Related business
Manufacturer
Unknown
Mission
Spacecraft
Bus & Motor
Unknown
Mass
Unknown
Launch date (UTC)
1970-04-08 (56 years ago)
Launch vehicle
Unknown
Launch site
Air Force Western Test Range (AFWTR)
Object type
Payload
Rocket body
Debris
Shape & HBR
Unknown shape, 0.1 m
Radar Cross Section
Small (<0.1 m²)

Expand to show TLE details & history
Last TLE update: 15 hours ago

TLE from 15 hours ago
0 THORAD AGENA D DEB
1 22533U 70025QP  25287.13949219  .00001921  00000-0  21861-2 0  9994
2 22533 100.0925  93.6629 0004262 148.2337 276.3042 13.71526413619576
Epoch: 2025-10-14T03:20Z
TLE epoch observation values (Epoch: 2025-10-14T03:20:52.125Z)
Latitude
62.78215°
Longitude
0.37584°
Altitude
1,004.441 km
Speed
7.356 km/s
True Right ascension
04h 54m 06s
True Declination
62° 38' 48"
Sunlit
Object was in daylight at epoch
Visualization orbit readout
Latitude
Unknown
Longitude
Unknown
Altitude
Unknown
Speed
Unknown
Apparent Right ascension
Unknown
Apparent Declination
Unknown
Sunlit
N/A
Visualization observer readout
Local Sidereal Time
12:54:17
Azimuth
Unknown
Elevation
Unknown
Doppler factor
Unknown
Orbital elements
Apogee altitude
994.53 km
Perigee altitude
988.249 km
Semi-major axis
7,369.527 km
Eccentricity
0.00043
Inclination
100.0925°
RAAN
93.6629°
Arg. of periapsis
148.2337°
True anomaly
276.25565°
Mean anomaly
276.3042°
Eccentric anomaly
276.27993°
Mean motion
3.43071 °/min
Orbital period
104.93 mins
BSTAR
0.0021861

Documentation

Showing up to 5 results
|